Time,TemperatureF,DewpointF,PressureIn,WindDirection,WindDirectionDegrees,WindSpeedMPH,WindSpeedGustMPH,Humidity,HourlyPrecipIn,Conditions,Clouds,dailyrainin,SoftwareType,DateUTC
2013-07-12 00:01:00,66.0,65.0,29.93,NNW,331,0.0,0.0,97,0.00,,,-99.99,,2013-07-12 04:01:00,
2013-07-12 00:11:00,66.0,65.0,29.93,NNW,331,0.0,0.0,98,0.00,,,-99.99,,2013-07-12 04:11:00,
2013-07-12 00:22:00,66.0,65.0,29.93,NNW,331,0.0,0.0,97,0.00,,,-99.99,,2013-07-12 04:22:00,
2013-07-12 00:32:00,66.0,65.0,29.93,NNW,331,0.0,0.0,98,0.00,,,-99.99,,2013-07-12 04:32:00,
2013-07-12 00:43:00,66.0,65.0,29.93,NNW,331,0.0,0.0,98,0.00,,,-99.99,,2013-07-12 04:43:00,
2013-07-12 00:53:00,66.0,65.0,29.93,NNW,331,0.0,0.0,98,0.00,,,-99.99,,2013-07-12 04:53:00,
2013-07-12 01:02:00,67.0,66.0,29.93,NNW,331,0.0,4.0,98,0.00,,,-99.99,,2013-07-12 05:02:00,
2013-07-12 01:12:00,67.0,66.0,29.94,NNW,331,3.0,5.0,97,0.00,,,-99.99,,2013-07-12 05:12:00,
2013-07-12 01:22:00,67.0,66.0,29.93,NNW,330,0.0,4.0,96,0.00,,,-99.99,,2013-07-12 05:22:00,
2013-07-12 01:32:00,67.0,65.0,29.94,NW,321,0.0,7.0,93,0.00,,,-99.99,,2013-07-12 05:32:00,
2013-07-12 01:53:00,67.0,64.0,29.94,NW,326,2.0,7.0,89,0.00,,,-99.99,,2013-07-12 05:53:00,
2013-07-12 02:01:00,67.0,63.0,29.95,NW,322,0.0,7.0,86,0.00,,,-99.99,,2013-07-12 06:01:00,
2013-07-12 02:11:00,67.0,62.0,29.96,NNW,336,5.0,7.0,83,0.00,,,-99.99,,2013-07-12 06:11:00,
2013-07-12 02:22:00,67.0,61.0,29.96,NNW,331,1.0,8.0,81,0.00,,,-99.99,,2013-07-12 06:22:00,
2013-07-12 02:33:00,67.0,61.0,29.96,NW,325,4.0,9.0,80,0.00,,,-99.99,,2013-07-12 06:33:00,
2013-07-12 02:42:00,67.0,61.0,29.96,NW,318,5.0,8.0,80,0.00,,,-99.99,,2013-07-12 06:42:00,
2013-07-12 02:52:00,67.0,60.0,29.97,NNW,338,3.0,9.0,79,0.00,,,-99.99,,2013-07-12 06:52:00,
2013-07-12 03:02:00,67.0,60.0,29.97,NW,322,1.0,8.0,79,0.00,,,-99.99,,2013-07-12 07:02:00,
2013-07-12 03:12:00,67.0,60.0,29.97,NNW,336,4.0,7.0,79,0.00,,,-99.99,,2013-07-12 07:12:00,
2013-07-12 03:33:00,66.0,59.0,29.98,NNW,338,1.0,6.0,79,0.00,,,-99.99,,2013-07-12 07:33:00,
2013-07-12 03:43:00,66.0,59.0,29.98,NNW,332,0.0,8.0,78,0.00,,,-99.99,,2013-07-12 07:43:00,
2013-07-12 03:52:00,66.0,60.0,29.99,NW,313,4.0,7.0,80,0.00,,,-99.99,,2013-07-12 07:52:00,
2013-07-12 04:02:00,65.0,59.0,30.00,NW,313,3.0,7.0,80,0.00,,,-99.99,,2013-07-12 08:02:00,
2013-07-12 04:22:00,65.0,58.0,30.01,NW,320,4.0,8.0,79,0.00,,,-99.99,,2013-07-12 08:22:00,
2013-07-12 04:32:00,64.0,57.0,30.01,NW,311,3.0,6.0,78,0.00,,,-99.99,,2013-07-12 08:32:00,
2013-07-12 04:42:00,64.0,57.0,30.02,NW,324,2.0,8.0,77,0.00,,,-99.99,,2013-07-12 08:42:00,
2013-07-12 04:53:00,64.0,57.0,30.02,NNW,330,2.0,8.0,78,0.00,,,-99.99,,2013-07-12 08:53:00,
2013-07-12 05:02:00,64.0,57.0,30.02,NW,320,2.0,8.0,78,0.00,,,-99.99,,2013-07-12 09:02:00,
2013-07-12 05:13:00,63.0,56.0,30.02,NW,318,3.0,6.0,78,0.00,,,-99.99,,2013-07-12 09:13:00,
2013-07-12 05:32:00,63.0,57.0,30.03,NW,315,3.0,7.0,80,0.00,,,-99.99,,2013-07-12 09:32:00,
2013-07-12 05:43:00,62.0,56.0,30.04,NW,324,2.0,3.0,81,0.00,,,-99.99,,2013-07-12 09:43:00,
2013-07-12 05:52:00,62.0,56.0,30.04,NW,324,0.0,4.0,81,0.00,,,-99.99,,2013-07-12 09:52:00,
2013-07-12 06:01:00,61.0,55.0,30.04,NNW,328,0.0,5.0,82,0.00,,,-99.99,,2013-07-12 10:01:00,
2013-07-12 06:33:00,62.0,56.0,30.05,NNW,327,3.0,8.0,82,0.00,,,-99.99,,2013-07-12 10:33:00,
2013-07-12 06:42:00,62.0,56.0,30.05,NNW,327,3.0,8.0,82,0.00,,,-99.99,,2013-07-12 10:42:00,
2013-07-12 06:52:00,63.0,56.0,30.06,NNW,327,3.0,8.0,79,0.00,,,-99.99,,2013-07-12 10:52:00,
2013-07-12 07:12:00,64.0,57.0,30.07,North,349,4.0,7.0,78,0.00,,,-99.99,,2013-07-12 11:12:00,
2013-07-12 07:22:00,64.0,57.0,30.07,North,349,4.0,7.0,78,0.00,,,-99.99,,2013-07-12 11:22:00,
2013-07-12 07:32:00,64.0,57.0,30.07,North,360,0.0,7.0,77,0.00,,,-99.99,,2013-07-12 11:32:00,
2013-07-12 07:53:00,65.0,57.0,30.08,NNW,328,0.0,8.0,75,0.00,,,-99.99,,2013-07-12 11:53:00,
2013-07-12 08:02:00,66.0,58.0,30.09,NW,306,0.0,8.0,75,0.00,,,-99.99,,2013-07-12 12:02:00,
2013-07-12 08:11:00,66.0,57.0,30.09,NNE,20,2.0,11.0,73,0.00,,,-99.99,,2013-07-12 12:11:00,
2013-07-12 08:22:00,67.0,58.0,30.09,North,11,6.0,9.0,72,0.00,,,-99.99,,2013-07-12 12:22:00,
2013-07-12 08:32:00,67.0,58.0,30.09,WNW,299,3.0,10.0,72,0.00,,,-99.99,,2013-07-12 12:32:00,
2013-07-12 08:43:00,68.0,58.0,30.09,NNW,344,3.0,8.0,70,0.00,,,-99.99,,2013-07-12 12:43:00,
2013-07-12 08:52:00,68.0,58.0,30.09,NNW,327,0.0,8.0,70,0.00,,,-99.99,,2013-07-12 12:52:00,
2013-07-12 09:01:00,69.0,59.0,30.09,NW,323,5.0,7.0,70,0.00,,,-99.99,,2013-07-12 13:01:00,
2013-07-12 09:32:00,70.0,59.0,30.10,NE,46,0.0,11.0,67,0.00,,,-99.99,,2013-07-12 13:32:00,
2013-07-12 09:43:00,70.0,59.0,30.10,North,2,1.0,10.0,68,0.00,,,-99.99,,2013-07-12 13:43:00,
2013-07-12 10:02:00,70.0,59.0,30.10,NNE,15,1.0,8.0,67,0.00,,,-99.99,,2013-07-12 14:02:00,
2013-07-12 10:12:00,71.0,60.0,30.10,NNW,330,0.0,7.0,68,0.00,,,-99.99,,2013-07-12 14:12:00,
2013-07-12 10:44:00,73.0,60.0,30.11,NNW,340,0.0,10.0,64,0.00,,,-99.99,,2013-07-12 14:44:00,
2013-07-12 10:53:00,73.0,60.0,30.11,NNW,340,0.0,10.0,64,0.00,,,-99.99,,2013-07-12 14:53:00,
2013-07-12 11:33:00,75.0,59.0,30.11,NNW,328,2.0,9.0,58,0.00,,,-99.99,,2013-07-12 15:33:00,
2013-07-12 12:43:00,77.0,62.0,30.11,NNE,27,8.0,11.0,59,0.00,,,-99.99,,2013-07-12 16:43:00,
2013-07-12 12:58:00,77.0,60.0,30.11,NNE,15,0.0,11.0,56,0.00,,,-99.99,,2013-07-12 16:58:00,
2013-07-12 15:46:00,78.0,62.0,30.11,SW,235,1.0,9.0,57,0.00,,,-99.99,,2013-07-12 19:46:00,
2013-07-12 15:57:00,77.0,61.0,30.11,SE,134,4.0,9.0,58,0.00,,,-99.99,,2013-07-12 19:57:00,
2013-07-12 16:04:00,77.0,61.0,30.11,SE,134,3.0,8.0,58,0.00,,,-99.99,,2013-07-12 20:04:00,
2013-07-12 16:34:00,76.0,60.0,30.11,East,91,1.0,8.0,58,0.00,,,-99.99,,2013-07-12 20:34:00,
2013-07-12 16:54:00,76.0,61.0,30.11,SE,144,6.0,7.0,59,0.00,,,-99.99,,2013-07-12 20:54:00,
2013-07-12 17:04:00,77.0,61.0,30.11,South,187,2.0,8.0,57,0.00,,,-99.99,,2013-07-12 21:04:00,
2013-07-12 17:16:00,77.0,61.0,30.11,SSE,148,4.0,7.0,57,0.00,,,-99.99,,2013-07-12 21:16:00,
2013-07-12 17:25:00,77.0,61.0,30.11,SE,145,5.0,6.0,57,0.00,,,-99.99,,2013-07-12 21:25:00,
2013-07-12 17:46:00,77.0,61.0,30.11,WSW,249,0.0,6.0,58,0.00,,,-99.99,,2013-07-12 21:46:00,
2013-07-12 17:55:00,77.0,61.0,30.11,WSW,249,0.0,6.0,58,0.00,,,-99.99,,2013-07-12 21:55:00,
2013-07-12 18:46:00,77.0,61.0,30.13,South,172,0.0,3.0,58,0.00,,,-99.99,,2013-07-12 22:46:00,
2013-07-12 18:54:00,77.0,62.0,30.13,South,170,2.0,3.0,59,0.00,,,-99.99,,2013-07-12 22:54:00,
2013-07-12 19:05:00,77.0,61.0,30.13,South,182,0.0,5.0,58,0.00,,,-99.99,,2013-07-12 23:05:00,
2013-07-12 19:14:00,76.0,61.0,30.13,South,170,1.0,2.0,60,0.00,,,-99.99,,2013-07-12 23:14:00,
2013-07-12 19:35:00,74.0,62.0,30.13,SSE,164,0.0,1.0,67,0.00,,,-99.99,,2013-07-12 23:35:00,
2013-07-12 19:55:00,70.0,62.0,30.13,SSE,164,0.0,0.0,75,0.00,,,-99.99,,2013-07-12 23:55:00,
2013-07-12 20:08:00,69.0,62.0,30.13,SSE,164,0.0,0.0,78,0.00,,,-99.99,,2013-07-13 00:08:00,
2013-07-12 20:19:00,68.0,62.0,30.13,SSE,164,0.0,0.0,81,0.00,,,-99.99,,2013-07-13 00:19:00,
2013-07-12 20:26:00,67.0,61.0,30.14,SSE,164,0.0,0.0,82,0.00,,,-99.99,,2013-07-13 00:26:00,
2013-07-12 20:33:00,66.0,61.0,30.14,SSE,164,0.0,0.0,85,0.00,,,-99.99,,2013-07-13 00:33:00,
2013-07-12 20:47:00,65.0,61.0,30.14,SSE,164,0.0,0.0,86,0.00,,,-99.99,,2013-07-13 00:47:00,
2013-07-12 20:55:00,64.0,60.0,30.14,SSE,164,0.0,0.0,87,0.00,,,-99.99,,2013-07-13 00:55:00,
2013-07-12 21:05:00,64.0,60.0,30.14,SSE,164,0.0,0.0,88,0.00,,,-99.99,,2013-07-13 01:05:00,
2013-07-12 21:24:00,63.0,60.0,30.15,SSE,164,0.0,0.0,89,0.00,,,-99.99,,2013-07-13 01:24:00,
2013-07-12 21:38:00,62.0,59.0,30.16,SSE,164,0.0,0.0,90,0.00,,,-99.99,,2013-07-13 01:38:00,
2013-07-12 21:48:00,62.0,59.0,30.16,SSE,164,0.0,0.0,90,0.00,,,-99.99,,2013-07-13 01:48:00,
2013-07-12 21:56:00,62.0,59.0,30.17,SSE,164,0.0,0.0,91,0.00,,,-99.99,,2013-07-13 01:56:00,
2013-07-12 22:15:00,61.0,59.0,30.17,SSE,164,0.0,0.0,92,0.00,,,-99.99,,2013-07-13 02:15:00,
2013-07-12 22:25:00,61.0,59.0,30.17,SSE,164,0.0,0.0,92,0.00,,,-99.99,,2013-07-13 02:25:00,
2013-07-12 22:37:00,60.0,58.0,30.17,SSE,164,0.0,0.0,93,0.00,,,-99.99,,2013-07-13 02:37:00,
2013-07-12 22:46:00,60.0,58.0,30.17,SSE,164,0.0,0.0,93,0.00,,,-99.99,,2013-07-13 02:46:00,
2013-07-12 23:06:00,59.0,57.0,30.17,SSE,164,0.0,0.0,93,0.00,,,-99.99,,2013-07-13 03:06:00,
2013-07-12 23:13:00,59.0,57.0,30.17,SSE,164,0.0,0.0,93,0.00,,,-99.99,,2013-07-13 03:13:00,
2013-07-12 23:37:00,59.0,57.0,30.18,SSE,164,0.0,0.0,94,0.00,,,-99.99,,2013-07-13 03:37:00,